Regional Weather Roundup
Issued by NWS Upton, NY

Home | Current Version | Previous Version | Text Only | Print | Product List | Glossary On
Versions: 1 2 3 4 5 6 7 8 9 10 11 12 13 14 15 16 17 18 19 20 21 22 23 24 25 26 27 28 29 30 31 32 33 34 35 36 37 38 39 40 41 42 43 44 45 46 47 48 49 50
000
ASUS41 KOKX 220409
RWROKX

Regional Weather Roundup
National Weather Service New York NY
1100 PM EST SUN JAN 21 2018

Note: "FAIR" indicates few or no clouds below 12,000 feet with no
significant weather and/or obstructions to visibility.

NYZ071-072-176-178-NJZ106-104-220500-
New York City Metro Area

CITY           SKY/WX    TMP DP  RH WIND       PRES   REMARKS
Central Park   CLOUDY    49  35  58 CALM      30.19S
Bronx Bot Gard   N/A     45  32  61 E2        30.18R
Bronx Lehman C   N/A     46  32  57 E3          N/A
LaGuardia Arpt CLOUDY    47  34  60 S5        30.16F
Queens College   N/A     45  37  76 S5          N/A
Kennedy Intl   CLOUDY    42  38  85 S5        30.19F
Breezy Point     N/A     39 N/A N/A S5          N/A
Brooklyn Coll    N/A     46  36  66 S3          N/A
Staten Island    N/A     46  36  66 S3          N/A
Newark/Liberty CLOUDY    47  35  63 S3        30.17F
Teterboro      CLOUDY    45  34  65 CALM      30.16F
$$

NYZ177-179-078>081-220500-
Long Island New York

CITY           SKY/WX    TMP DP  RH WIND       PRES   REMARKS
Jones Beach      N/A     43 N/A N/A SW5         N/A
Wantagh          N/A     41  34  75 SE3         N/A
Matinecock Pt    N/A     37 N/A N/A E6          N/A  WCI  33
Farmingdale    CLOUDY    41  33  73 SE5       30.18F
MacArthur/ISP  CLOUDY    41  34  76 E3        30.18F
Shirley        CLOUDY    37  32  82 CALM      30.20F
Mt Sinai Harb    N/A    N/A N/A N/A S2          N/A
Westhampton    CLOUDY    34  28  79 CALM      30.21S
East Hampton   CLOUDY    32  29  87 CALM      30.20S
Southold         N/A     36  32  87 SW3         N/A
Montauk          N/A     37  34  89 CALM      30.21R
$$

NYZ052-065-067-220500-
Hudson Valley

CITY           SKY/WX    TMP DP  RH WIND       PRES   REMARKS
White Plains   CLOUDY    41  31  67 CALM      30.16S
Larchmont Harb   N/A     37 N/A N/A NE6         N/A  WCI  33
Croton On Huds   N/A     37 N/A N/A MISG        N/A
Somers           N/A     37  32  81 CALM        N/A
Brewster         N/A     36  32  87 CALM        N/A
Newburgh       DRIZZLE   39  32  75 CALM      30.17S
Montgomery     LGT RAIN  35  32  88 CALM      30.15S FOG
Otisville        N/A     36  34  93 CALM        N/A
Warwick          N/A     36  34  93 NE2         N/A
Suffern          N/A     41  32  70 NE1         N/A
Poughkeepsie   MIX PCPN  34  31  88 CALM      30.17S
Albany         CLOUDY    33  28  81 CALM      30.17S
$$

NJZ001-105-106-008-010-013-015-019>022-104-220500-
New Jersey

CITY           SKY/WX    TMP DP  RH WIND       PRES   REMARKS
Newark/Liberty CLOUDY    47  35  63 S3        30.17F
Teterboro      CLOUDY    45  34  65 CALM      30.16F
Caldwell       CLOUDY    42  36  79 CALM      30.17S
Somerville     CLOUDY    40  35  83 CALM      30.14F
Linden         CLOUDY    46  35  63 CALM      30.17S
Perth Amboy      N/A     43 N/A N/A SE6         N/A
Sussex         CLOUDY    36  32  85 CALM      30.15S
Andover          N/A     36  33  89 CALM      30.14F
Trenton        CLOUDY    46  37  71 CALM      30.15F
Millville      CLOUDY    46  35  65 S3        30.16F
Atlantic City  CLOUDY    46  35  65 S7        30.17F
Wrightstown    CLOUDY    46  36  70 CALM      30.14F
Toms River     CLOUDY    45  36  70 S3        30.18F
Belmar         CLOUDY    46  37  71 SE3       30.18F
$$

PAZ047>061-062-071-220500-
Eastern Pennsylvania

CITY           SKY/WX    TMP DP  RH WIND       PRES   REMARKS
Philadelphia   CLOUDY    45  36  70 SE3       30.16F
Allentown      CLOUDY    44  37  76 CALM      30.14F
Scranton       CLOUDY    37  36  96 CALM      30.12S FOG
$$

CTZ002-004>006-009-010-012-RIZ004-006-007-MAZ004-011-015-220500-
Southern New England

 In CT

CITY           SKY/WX    TMP DP  RH WIND       PRES   REMARKS
Bradley Intl   CLOUDY    34  30  85 W3        30.18S
Hartford       CLOUDY    34  31  88 CALM      30.19S
Danbury        CLOUDY    36  32  85 CALM      30.18F
Wtrbury/Oxford CLOUDY    38  29  70 CALM      30.17S
Norwalk Harbor   N/A     36 N/A N/A NE5         N/A  WCI  32
Bridgeport     CLOUDY    38  31  76 CALM      30.19F
Meriden        CLOUDY    33  29  85 E5        30.18F WCI  29
New Haven      CLOUDY    38  31  76 NE3       30.18F
Chester        CLOUDY    41  28  60 SW5       30.19R
Groton         CLOUDY    32  29  88 N3        30.20S
Willimantic    CLOUDY    31  28  89 CALM      30.19F

 In RI

CITY           SKY/WX    TMP DP  RH WIND       PRES   REMARKS
Providence     MOCLDY    32  29  88 CALM      30.20S
Block Island   FAIR      32  31  96 SW5       30.21S WCI  27
Westerly       CLOUDY    30  29  96 CALM      30.21R FOG

In MA

CITY           SKY/WX    TMP DP  RH WIND       PRES   REMARKS
Boston         MOCLDY    36  30  79 S3        30.19S
Worcester      CLOUDY    35  27  72 W6        30.16S WCI  30
Westfield      CLOUDY    31  30  96 CALM      30.18S
Provincetown   FAIR      32  29  88 S6        30.22  WCI  26
Nantucket      FAIR      30  29  96 CALM      30.22R
$$

ANZ330-335-338-340-345-350-353-355-220500-
Coastal Marine Observations


STATION/POSITION TIME  SKY/WX   TEMP    WIND        PRES    VSBY  WAVE
                                AIR SEA DIR/SP/G                  HT/PER
                 (UTC)          (F)     (DEG/KT/KT) (MB)    (MI)  (FT/S)
NY Harb Entrance 0350            42 39  190/  6/  6 1021.7          2/ 6
20 S Fire Island 0350            43 41  210/  8/ 10 1022.1          2/ 7
15 E Barnegat Li 0330               42                N/A           2/ 6
Hudson Canyon    0350            49 50  240/  8/  8 1022.6          2/ 7
Kings Point      0342            44 34  190/  5/  8 1022.4
Execution Rocks  NOT AVBL
Western LI Sound NOT AVBL
Central LI Sound 0330            38     210/  6/  8   N/A           0
Robbins Reef     0342            45     170/  9/  9 1022.2
$$


>>>>>>>>>>>>>>>>>>>>>>>>>>>> KEY <<<<<<<<<<<<<<<<<<<<<<<<<<<
>                                                          <
>     SKY/WX - Sky Condition/Present Weather               <
>     TMP    - Temperature in Fahrenheit                   <
>     DP     - Dew Point in Fahrenheit                     <
>     RH     - Relative Humidity in Percent                <
>     WIND   - Direction (from) and Speed in MPH           <
>     PRES   - Mean Sea Level Pressure (inches of Hg)      <
>     WCI    - Wind Chill Index                            <
>     VSB    - Visibility in Miles                         <
>     HX     - Heat Index                                  <
>     TC     - Temperature in Celsius                      <
>     VRB    - Varibale Wind Direction                     <
>                                                          <
>>>>>>>>>>>>>>>>>>>>>>>>>>>> KEY <<<<<<<<<<<<<<<<<<<<<<<<<<<



USA.gov is the U.S. government's official web portal to all federal, state and local government web resources and services.